Location: Castelbiague
(43.0361°N, 0.9246°E)
Time: 22:27:51
(UTC+00:00)

USA 215 - Pass Details

Date: 27 October 2021
Orbit: 1099 x 1109 km, 123.0° (Epoch: 20 November)

Event Time Altitude Azimuth Distance (km) Brightness Sun altitude
Exits shadow 18:42:39 15° 39° (NE) 2,627 4.9 -20.2°
Maximum altitude 18:47:44 42° 335° (NNW) 1,530 4.2 -21.2°
Drops below altitude 10° 18:53:47 10° 267° (W) 2,962 6.7 -22.3°
Sets 18:56:23 0° 261° (W) 3,920 7.5 -22.7°
